Weather History for Greensboro, NC

Change the Weather History Date:

Friday, August 23, 2013

  Actual Average Record
Temperature  
Mean Temperature 74 °F 77 °F  
Max Temperature 84 °F 86 °F 99 °F (1983)
Min Temperature 64 °F 68 °F 52 °F (1925)
Degree Days  
Heating Degree Days 0 0  
Month to date heating degree days 2 0  
Since 1 June heating degree days 2 6  
Since 1 July heating degree days 2 0  
Cooling Degree Days 9 12  
Month to date cooling degree days 230 291  
Year to date cooling degree days 1079 1176  
Since 1 June cooling degree days 929 1017  
Growing Degree Days 24 (Base 50)    
Moisture  
Dew Point 66 °F    
Average Humidity 74    
Maximum Humidity 93    
Minimum Humidity 55    
Precipitation  
Precipitation 0.30 in 0.13 in 1.10 in (1949)
Month to date precipitation 5.62 2.84  
Year to date precipitation 38.36 27.75  
Sea Level Pressure  
Sea Level Pressure 30.02 in    
Wind  
Wind Speed 7 mph (NNW)    
Max Wind Speed 22 mph    
Max Gust Speed 28 mph    
Visibility 10 miles    
Events Rain    
T = Trace of Precipitation, MM = Missing Value Source: NWS Daily Summary

Daily Weather History Graph

Daily Weather History Graph

Search for Another Location

Airport:

Trip Planner

Search our weather history database for the weather conditions in past years. The results will help you decide how hot, cold, wet, or windy it might be!

Date:

Astronomy

Aug. 23, 2013 Rise Set
Actual Time 6:44 AM EDT 7:59 PM EDT
Civil Twilight 6:17 AM EDT 8:26 PM EDT
Nautical Twilight 5:45 AM EDT 8:57 PM EDT
Astronomical Twilight 5:12 AM EDT 9:30 PM EDT
Moon 9:25 PM EDT (8/23) 9:30 AM EDT (8/23)
Length of Visible Light 14h 08m
Length of Day
13h 14m
Waning Gibbous, 91% of the Moon is Illuminated
Aug 23
Waning Gibbous
Aug 28
Last Quarter
Sep 5
New
Sep 12
First Quarter
Sep 19
Full

Hourly Weather History & Observations

Time (EDT) Temp. Heat Index Dew Point Humidity Pressure Visibility Wind Dir Wind Speed Gust Speed Precip Events Conditions
12:54 AM 69.1 °F - 64.9 °F 87% 30.03 in 10.0 mi West 5.8 mph - N/A   Clear
1:54 AM 69.1 °F - 66.0 °F 90% 30.01 in 10.0 mi West 5.8 mph - N/A   Clear
2:54 AM 68.0 °F - 64.9 °F 90% 29.98 in 10.0 mi Calm Calm - N/A   Clear
3:54 AM 68.0 °F - 64.9 °F 90% 29.97 in 10.0 mi WNW 4.6 mph - N/A   Partly Cloudy
4:54 AM 68.0 °F - 64.9 °F 90% 29.97 in 10.0 mi NW 3.5 mph - N/A   Scattered Clouds
5:54 AM 69.1 °F - 64.9 °F 87% 29.98 in 10.0 mi WNW 3.5 mph - N/A   Mostly Cloudy
6:54 AM 70.0 °F - 66.0 °F 87% 30.00 in 10.0 mi WNW 4.6 mph - N/A   Mostly Cloudy
7:54 AM 72.0 °F - 66.9 °F 84% 30.02 in 10.0 mi West 3.5 mph - N/A   Overcast
8:54 AM 75.9 °F - 66.9 °F 74% 30.02 in 10.0 mi Calm Calm - N/A   Scattered Clouds
9:54 AM 79.0 °F - 68.0 °F 69% 30.02 in 10.0 mi WNW 6.9 mph - N/A   Mostly Cloudy
10:54 AM 80.1 °F 82.7 °F 68.0 °F 67% 30.03 in 10.0 mi NW 8.1 mph - N/A   Mostly Cloudy
11:54 AM 82.0 °F 84.5 °F 66.9 °F 60% 30.02 in 10.0 mi NW 8.1 mph - N/A   Mostly Cloudy
12:54 PM 84.0 °F 87.0 °F 68.0 °F 58% 30.01 in 10.0 mi NW 9.2 mph - N/A   Mostly Cloudy
1:54 PM 84.0 °F 87.0 °F 68.0 °F 58% 29.99 in 10.0 mi NW 10.4 mph - N/A   Mostly Cloudy
2:54 PM 82.0 °F 84.9 °F 68.0 °F 62% 29.99 in 10.0 mi NW 9.2 mph - N/A   Mostly Cloudy
3:54 PM 82.0 °F 84.9 °F 68.0 °F 62% 29.96 in 10.0 mi NW 5.8 mph - N/A   Mostly Cloudy
4:54 PM 82.9 °F 85.0 °F 66.0 °F 56% 29.95 in 10.0 mi WNW 8.1 mph - N/A   Mostly Cloudy
5:54 PM 82.9 °F 84.6 °F 64.9 °F 54% 29.94 in 10.0 mi WNW 10.4 mph - N/A   Mostly Cloudy
6:54 PM 81.0 °F 83.0 °F 66.0 °F 60% 29.97 in 10.0 mi North 3.5 mph - N/A   Mostly Cloudy
7:54 PM 73.0 °F - 64.9 °F 76% 30.02 in 10.0 mi NNE 17.3 mph 25.3 mph 0.00 in Rain Light Rain
8:16 PM 69.8 °F - 66.2 °F 88% 30.06 in 1.0 mi NNE 18.4 mph 23.0 mph 0.05 in Rain Heavy Rain
8:36 PM 69.8 °F - 66.2 °F 88% 30.06 in 7.0 mi ENE 12.7 mph - 0.30 in Rain Light Rain
8:54 PM 69.1 °F - 66.9 °F 93% 30.04 in 10.0 mi NE 11.5 mph - 0.30 in   Mostly Cloudy
9:05 PM 69.8 °F - 68.0 °F 94% 30.09 in 9.0 mi North 5.8 mph - N/A   Overcast
9:54 PM 68.0 °F - 66.0 °F 93% 30.08 in 10.0 mi NNE 12.7 mph 19.6 mph N/A   Overcast
10:22 PM 66.2 °F - 62.6 °F 88% 30.11 in 10.0 mi NNE 12.7 mph - N/A   Mostly Cloudy
10:54 PM 64.9 °F - 62.1 °F 90% 30.09 in 10.0 mi North 6.9 mph - N/A   Mostly Cloudy
11:54 PM 64.9 °F - 62.1 °F 90% 30.09 in 10.0 mi NNE 5.8 mph - N/A   Scattered Clouds